{"data":{"norad_id":66492,"epoch":"2026-05-24T19:50:49.853760Z","epoch_age_seconds":90153,"freshness":"FRESH","line1":"1 66492U 25263H   26144.82696590  .00022186  00000+0  81286-3 0  9993","line2":"2 66492  43.0018 280.6757 0001575 270.5148  89.5524 15.27598794 30547","mean_motion":15.27598794,"eccentricity":0.0001575,"inclination_deg":43.0018,"raan_deg":280.6757,"arg_perigee_deg":270.5148,"mean_anomaly_deg":89.5524,"bstar":0.00081286,"rev_number":3054,"period_min":94.265588952802,"perigee_km":481.91219267277,"apogee_km":484.07344856626,"semimajor_km":6861.1298206195,"source":"CELESTRAK","updated_at":"2026-05-25T13:38:21.243153Z"}}